Zurück zum Katalog

ATLAS 5 CENTAUR DEB

LostHEO
NORAD 46649·DEBRIS·🇺🇸 United States

Gestartet Sep 17, 2014 von Cape Canaveral Space Force Station

Loading…

Nächste Überflüge (nächste 24 Stunden)

TLE

VeraltetSource: Space-Track

Epoche: Nov 26, 2023, 23:58 UTC

1 46649U 14055CZ  23330.99911728 -.00000114  00000-0  00000+0 0  9997
2 46649  20.6360 250.0889 4708792 341.2807   6.0623  1.82085041 20774

Verfolge ATLAS 5 CENTAUR DEB in Echtzeit mit AllMySat

Download on the App Store